Location: Brno
(49.2000°N, 16.6330°E)
Time: 02:15:40
(UTC+02:00)

Vanguard 3 - Pass Details

Date: 07 August 2021
Orbit: 510 x 3260 km, 33.3° (Epoch: 19 September)

Event Time Altitude Azimuth Distance (km) Brightness Sun altitude
Rises 17:02:53 0° 225° (SW) 4,631 11.8 31.1°
Reaches altitude 10° 17:05:51 10° 216° (SW) 3,989 11.5 30.6°
Maximum altitude 17:15:45 35° 156° (SSE) 3,360 10.4 29.0°
Drops below altitude 10° 17:30:28 10° 100° (E) 5,947 11.1 26.7°
Sets 17:36:07 0° 94° (E) 7,154 11.4 25.7°
